This is the latest recevied weather packets stored in our database for station/object K6GMW. If no packets are shown the sender has not sent any weather packets the latest 10 day(s).
| Time | Temp. | Humidity | Pressure | Rain* | Wind** | Luminosity | Snow |
|---|---|---|---|---|---|---|---|
| 1788213249 | 38.33° C | 34% | 1015.4 hPa | 0 mm | - | 209 W/m² | - |
| 1788212945 | 38.33° C | 34% | 1015.4 hPa | 0 mm | - | 414 W/m² | - |
| 1788212642 | 38.89° C | 33% | 1015.6 hPa | 0 mm | - | 442 W/m² | - |
| 1788212338 | 38.89° C | 34% | 1015.6 hPa | 0 mm | - | 459 W/m² | - |
| 1788212034 | 38.33° C | 35% | 1015.7 hPa | 0 mm | - | 482 W/m² | - |
| 1788211729 | 37.78° C | 34% | 1015.7 hPa | 0 mm | - | 517 W/m² | - |
| 1788211426 | 38.89° C | 35% | 1015.7 hPa | 0 mm | - | 565 W/m² | - |
| 1788211124 | 38.89° C | 35% | 1015.8 hPa | 0 mm | - | 609 W/m² | - |
| 1788210825 | 38.89° C | 34% | 1015.8 hPa | 0 mm | - | 636 W/m² | - |
| 1788210524 | 38.33° C | 35% | 1015.9 hPa | 0 mm | - | 665 W/m² | - |
| 1788210220 | 38.89° C | 34% | 1015.8 hPa | 0 mm | - | 661 W/m² | - |
| 1788209915 | 37.78° C | 34% | 1016.1 hPa | 0 mm | - | 686 W/m² | - |
| 1788209612 | 37.78° C | 36% | 1016 hPa | 0 mm | - | 659 W/m² | - |
| 1788209311 | 37.78° C | 34% | 1016.2 hPa | 0 mm | - | 671 W/m² | - |
| 1788209010 | 38.33° C | 35% | 1016.3 hPa | 0 mm | - | 676 W/m² | - |
| 1788208710 | 38.33° C | 36% | 1016.4 hPa | 0 mm | - | 733 W/m² | - |
| 1788208405 | 37.78° C | 35% | 1016.5 hPa | 0 mm | - | 748 W/m² | - |
| 1788208103 | 38.33° C | 33% | 1016.4 hPa | 0 mm | - | 770 W/m² | - |
| 1788207798 | 38.33° C | 35% | 1016.6 hPa | 0 mm | - | 783 W/m² | - |
| 1788207498 | 38.33° C | 35% | 1016.6 hPa | 0 mm | - | 786 W/m² | - |
| 1788207197 | 38.33° C | 36% | 1016.8 hPa | 0 mm | - | 830 W/m² | - |
| 1788206893 | 38.33° C | 36% | 1016.6 hPa | 0 mm | - | 861 W/m² | - |
| 1788206588 | 37.78° C | 38% | 1016.8 hPa | 0 mm | - | 843 W/m² | - |
| 1788206283 | 37.22° C | 37% | 1016.9 hPa | 0 mm | - | 831 W/m² | - |
| 1788205979 | 37.78° C | 35% | 1016.9 hPa | 0 mm | - | 834 W/m² | - |
* Rain latest hour (hover to see other rain measurements)
** Current wind speed in m/s (hover to see current wind gust speed)